Regional Weather Roundup
Issued by NWS

Home | Current Version | Previous Version | Text Only | Print | Product List | Glossary Off
Versions: 1 2 3 4 5 6 7 8 9 10 11 12 13 14 15 16 17 18 19 20 21 22 23 24 25 26 27

000
ASUS45 KBOI 301510
RWRID

IDAHO REGIONAL WEATHER ROUNDUP
NATIONAL WEATHER SERVICE BOISE ID
900 AM MDT FRI SEP 30 2016

NOTE: "FAIR" INDICATES FEW OR NO CLOUDS BELOW 12000 FEET
WITH NO SIGNIFICANT WEATHER AND/OR OBSTRUCTIONS TO VISIBILITY

IDZ012-014-301600-
SOUTHWEST IDAHO


CITY           SKY/WX    TMP DP  RH WIND       PRES   REMARKS
BOISE          SUNNY     66  43  43 S8        30.05R
CALDWELL       SUNNY     66  49  54 SE9       30.04S
MOUNTAIN HOME  PTSUNNY   63  51  63 E14       30.07R
$$

IDZ016-017-301600-
SOUTHCENTRAL IDAHO


CITY           SKY/WX    TMP DP  RH WIND       PRES   REMARKS
BURLEY         MOSUNNY   55  49  80 E3        30.15R
JEROME         SUNNY     59  49  69 E12       30.14S
TWIN FALLS     SUNNY     60  47  61 S13       30.13F
$$

IDZ019>023-301600-
SOUTHEAST IDAHO


CITY           SKY/WX    TMP DP  RH WIND       PRES   REMARKS
IDAHO FALLS    MOSUNNY   50  46  86 N6        30.22R
POCATELLO      MOSUNNY   55  49  80 N3        30.20R
REXBURG        PTSUNNY   49  45  86 NE5       30.22F
$$

IDZ006-010-011-018-031-032-301600-
CENTRAL IDAHO MOUNTAINS


CITY           SKY/WX    TMP DP  RH WIND       PRES   REMARKS
MCCALL         SUNNY     59  35  40 SE5       30.13R
HAILEY         MOSUNNY   54  46  76 W9        30.23S
STANLEY          N/A     45  43  93 CALM      30.28R
SALMON         SUNNY     48  45  87 N6        30.17R
CHALLIS        SUNNY     46  43  89 CALM      30.22R
$$

IDZ002-004-006-007-026-301600-
NORTHERN IDAHO


CITY           SKY/WX    TMP DP  RH WIND       PRES   REMARKS
LEWISTON       SUNNY     59  50  72 CALM      29.98R
LOWELL           N/A     52  49  89 N3        30.02R
COEUR D`ALENE  MOSUNNY   58  54  86 S3        29.99S
MULLAN PASS    PTSUNNY   53  41  63 SE8       30.12S
$$




USA.gov is the U.S. government's official web portal to all federal, state and local government web resources and services.